User: anonymous   Login
Location: Unspecified
(0.0000°N, 0.0000°E)
Time: 22:49:28
(UTC+02:00)
Language:

Cosmos 2263 Rocket - Orbit

View from above orbital plane
View from above orbital plane
View from above satellite
View from above satellite

Ground track
Ground track

The orbit data is extracted from the following two-line orbital elements,

1 22803U 93059B   18115.92870992 +.00000253 +00000-0 +15029-3 0  9993
2 22803 070.9897 310.4136 0019432 269.3254 090.5642 14.16790296272322
Epoch (UTC): 25 April 2018 22:17:20
Eccentricity: 0.0019432
inclination: 70.9897°
perigee height: 822 km
apogee height: 850 km
right ascension of ascending node: 310.4136°
argument of perigee: 269.3254°
revolutions per day: 14.16790296
mean anomaly at epoch: 90.5642°
orbit number at epoch: 27232

The dashed part of the orbit path shows where the satellite is in the earth's shadow,  

DLR